Alturas, CA

1:13 PM PST on December 11, 2017 (GMT -0800)
Alturas Municipal

Weather History for KAAT - October, 2014

Change the Weather History Date:

Sunday, October 19, 2014

  Actual Average Record
Temperature  
Mean Temperature 51 °F 46 °F  
Max Temperature 75 °F 64 °F 84 °F (1961)
Min Temperature 27 °F 28 °F 10 °F (1905)
Degree Days  
Heating Degree Days 14 19  
Month to date heating degree days 213 309  
Since 1 July heating degree days 354 686  
Cooling Degree Days 0 0  
Month to date cooling degree days 0 0  
Year to date cooling degree days 380 156  
Moisture  
Dew Point 29 °F    
Average Humidity 50    
Maximum Humidity 85    
Minimum Humidity 14    
Precipitation  
Precipitation 0.00 in 0.04 in 0.66 in (2007)
Month to date precipitation 0.15 0.49  
Year to date precipitation 6.79 10.15  
Sea Level Pressure  
Sea Level Pressure 29.92 in    
Wind  
Wind Speed 5 mph (SW)    
Max Wind Speed 22 mph    
Max Gust Speed 29 mph    
Visibility 10 miles    
Events      
T = Trace of Precipitation, MM = Missing Value Source: NWS Daily Summary

Daily Weather History Graph

Daily Weather History Graph

Search for Another Location

Airport or City:

Trip Planner

Search our weather history database for the weather conditions in past years. The results will help you decide how hot, cold, wet, or windy it might be!

Date:

Astronomy

Oct. 19, 2014 Rise Set
Actual Time 7:18 AM PDT 6:14 PM PDT
Civil Twilight 6:50 AM PDT 6:42 PM PDT
Nautical Twilight 6:18 AM PDT 7:15 PM PDT
Astronomical Twilight 5:46 AM PDT 7:47 PM PDT
Moon 3:13 AM PDT (10/19) 4:11 PM PDT (10/19)
Length of Visible Light 11h 52m
Length of Day
10h 56m
Waning Crescent, 16% of the Moon is Illuminated
Oct 19
Waning Crescent
Oct 23
New
Oct 30
First Quarter
Nov 6
Full
Nov 14
Last Quarter

Hourly Weather History & Observations

Time (PDT) Temp. Windchill Dew Point Humidity Pressure Visibility Wind Dir Wind Speed Gust Speed Precip Events Conditions
12:55 AM 35.1 °F - 27.0 °F 72% 29.97 in 9.0 mi Calm Calm - N/A   Clear
1:55 AM 35.1 °F - 27.0 °F 72% 29.96 in 10.0 mi Calm Calm - N/A   Clear
2:55 AM 34.0 °F 31.0 °F 26.1 °F 73% 29.95 in 10.0 mi WSW 3.5 mph - N/A   Clear
3:55 AM 32.0 °F - 26.1 °F 79% 29.95 in 10.0 mi Calm Calm - N/A   Clear
4:55 AM 32.0 °F 28.7 °F 26.1 °F 79% 29.94 in 10.0 mi ENE 3.5 mph - N/A   Clear
6:55 AM 28.9 °F - 24.1 °F 82% 29.97 in 10.0 mi Calm Calm - N/A   Clear
7:55 AM 30.9 °F - 26.1 °F 82% 30.00 in 10.0 mi Calm Calm - N/A   Clear
8:55 AM 39.9 °F 37.8 °F 28.9 °F 65% 30.01 in 10.0 mi NW 3.5 mph - N/A   Clear
9:55 AM 52.0 °F - 30.0 °F 43% 29.99 in 10.0 mi Calm Calm - N/A   Clear
10:55 AM 61.0 °F - 30.0 °F 31% 29.96 in 10.0 mi Calm Calm - N/A   Clear
11:55 AM 70.0 °F - 26.1 °F 19% 29.91 in 10.0 mi South 13.8 mph 21.9 mph N/A   Clear
12:55 PM 73.0 °F - 21.9 °F 15% 29.89 in 10.0 mi South 17.3 mph 23.0 mph N/A   Clear
1:55 PM 73.9 °F - 21.9 °F 14% 29.87 in 10.0 mi South 12.7 mph 21.9 mph N/A   Clear
2:55 PM 73.9 °F - 21.9 °F 14% 29.85 in 10.0 mi SSE 8.1 mph - N/A   Clear
3:55 PM 73.0 °F - 28.9 °F 20% 29.86 in 9.0 mi WSW 11.5 mph 23.0 mph N/A   Clear
4:55 PM 71.1 °F - 32.0 °F 24% 29.85 in 10.0 mi SW 12.7 mph - N/A   Clear
5:55 PM 66.0 °F - 34.0 °F 30% 29.87 in 10.0 mi WSW 6.9 mph - N/A   Clear
6:55 PM 60.1 °F - 37.9 °F 44% 29.90 in 10.0 mi WSW 9.2 mph - N/A   Clear
7:55 PM 55.9 °F - 39.9 °F 55% 29.91 in 10.0 mi West 3.5 mph - N/A   Clear
8:55 PM 50.0 °F - 39.0 °F 66% 29.91 in 10.0 mi East 3.5 mph - N/A   Clear
9:55 PM 46.0 °F - 37.9 °F 73% 29.90 in 10.0 mi Calm Calm - N/A   Clear
10:55 PM 39.9 °F 37.8 °F 34.0 °F 79% 29.90 in 10.0 mi NE 3.5 mph - N/A   Clear
11:55 PM 37.0 °F - 30.9 °F 79% 29.89 in 10.0 mi Calm Calm - N/A   Clear